#timestamp,LO_Frequency,Hit,StdDev 
1515873615.3,286047001.2,N
1515873635.1,286047000.8,N
1515873655.8,286047001.1,N
1515873675.7,286047000.7,N
1515873695.5,286047000.9,N
1515873715.3,286047000.6,N
1515873735.2,286047000.5,N
1515873755.9,286047000.4,N
1515873775.7,286047000.4,N
1515873795.6,286047000.0,N
1515873815.4,286046999.9,N
1515873835.2,286047000.2,N
1515873855.0,286047000.1,N
1515873856.0,286047000.1,N
1515873875.8,286046999.8,N
1515873895.6,286046999.8,N
1515873915.4,286047002.8,N
1515873935.3,286047002.8,N
1515873955.1,286047002.7,N
1515873975.8,286047002.7,N
1515873995.7,286047002.3,N
1515874015.5,286047002.6,N
1515874035.3,286047002.5,N
1515874055.2,286047002.5,N
1515874075.9,286047002.5,N
1515874095.7,286047002.1,N
1515874115.6,286047002.0,N
1515874135.4,286047002.0,N
1515874155.2,286047002.0,N
1515874175.0,286047001.6,N
1515874175.9,286047001.6,N
1515874195.8,286047001.6,N
1515874215.6,286047001.8,N
1515874235.4,286047001.7,N
1515874255.3,286047001.7,N
1515874275.1,286047001.4,N
1515874295.8,286047001.7,N
1515874315.7,286047001.4,N
1515874335.5,286047001.4,N
1515874355.3,286047004.4,Y
1515874375.2,286047002.8,P
1515874395.9,286047002.7,P
1515874415.7,286047002.4,P
1515874435.6,286047002.3,Y
1515874455.4,286046998.5,P
1515874475.2,286046998.2,N
1515874495.1,286046998.2,N
1515874496.0,286046998.2,N
1515874515.8,286046998.2,N
1515874535.6,286046998.1,N
1515874555.5,286047001.2,N
1515874575.3,286047001.1,N
1515874595.1,286047000.8,N
1515874615.8,286047000.8,N
1515874635.7,286047000.7,N
1515874655.5,286047001.0,N
1515874675.3,286047000.9,N
1515874695.2,286047000.6,N
1515874715.9,286047000.9,N
1515874735.7,286047000.5,N
1515874755.6,286047000.5,N
1515874775.4,286047000.4,N
1515874795.2,286047000.3,N
1515874815.1,286047000.4,N
1515874816.0,286047000.4,N
1515874835.8,286047000.3,N
1515874855.6,286046999.9,N
1515874875.5,286047000.0,N
1515874895.3,286047000.2,N
1515874915.1,286046999.9,N
1515874935.8,286047000.1,N
1515874955.7,286047000.1,N
1515874975.5,286047000.1,N
1515874995.3,286046999.7,N
1515875015.2,286046999.7,N
1515875035.0,286047002.8,Y
1515875035.9,286047002.8,P
1515875055.7,286047002.3,N
1515875075.6,286047002.4,N
1515875095.4,286047002.4,N
1515875115.2,286047002.3,N
1515875135.1,286047002.6,N
1515875136.0,286047002.6,N
1515875155.8,286047002.5,Y
1515875175.6,286046998.1,P
1515875195.5,286047001.2,N
1515875215.3,286047001.1,N
1515875235.1,286047000.8,N
1515875255.9,286047000.7,N
1515875275.7,286047000.8,N
1515875295.5,286047001.0,N
1515875315.4,286047000.9,N
1515875335.2,286047000.9,N
1515875355.0,286047000.9,N
1515875355.9,286047000.9,N
1515875375.8,286047000.5,N
1515875395.6,286047000.4,N
1515875415.4,286047000.3,N
1515875435.3,286047000.3,N
1515875455.1,286047000.3,N
1515875456.0,286047000.3,N
1515875475.8,286046999.9,N
1515875495.6,286047000.2,N
1515875515.5,286046999.9,N
1515875535.3,286046999.8,N
1515875555.1,286047000.2,N
1515875575.9,286046999.8,N
1515875595.7,286046999.7,N
1515875615.5,286047002.8,Y
1515875635.4,286047000.2,P
1515875655.2,286047000.1,N
1515875675.0,286046999.8,N
1515875675.9,286046999.8,N
1515875695.8,286046999.8,N
1515875715.6,286047002.8,Y
1515875735.4,286047002.8,P
1515875755.3,286047002.7,N
1515875775.1,286047002.4,N
1515875795.8,286047002.4,N
1515875815.7,286047002.3,N
1515875835.5,286047002.3,N
1515875855.3,286047002.6,N
1515875875.2,286047002.5,N
1515875895.9,286047002.5,Y
1515875915.7,286047000.7,P
1515875935.6,286047001.0,N
1515875955.4,286047000.9,N
1515875975.2,286047001.0,N
1515875995.1,286047000.9,N
1515875996.0,286047000.9,N
1515876015.8,286047001.0,N
1515876035.6,286047000.6,N
1515876055.4,286047000.9,N
1515876075.3,286047000.5,N
1515876095.1,286047000.5,N
1515876115.8,286047000.4,N
1515876135.7,286047000.0,N
1515876155.5,286047000.0,N
1515876175.3,286046999.9,N
1515876195.2,286047000.2,N
1515876215.9,286047000.0,N
1515876235.7,286046999.9,N
1515876255.6,286047000.1,N
1515876275.4,286047000.1,N
1515876295.2,286046999.8,N
1515876315.1,286047002.8,Y
1515876316.0,286047002.8,P
1515876335.8,286046999.9,N
1515876355.6,286047000.2,N
1515876375.5,286047000.1,N
1515876395.3,286047000.1,N
1515876415.1,286047000.1,N
1515876435.8,286046999.8,N
1515876455.7,286046999.8,N
1515876475.5,286047002.8,Y
1515876495.3,286047000.2,P
1515876515.2,286046999.8,N
1515876535.0,286046999.7,N
1515876535.9,286046999.7,N
1515876555.7,286046999.7,N
1515876575.6,286047002.8,Y
1515876595.4,286047002.3,P
1515876615.2,286047002.3,N
1515876635.1,286047002.3,N
1515876636.0,286047002.3,N
1515876655.8,286047002.3,N
1515876675.6,286047002.6,N
1515876695.5,286047002.5,N
1515876715.3,286047002.2,N
1515876735.1,286047002.5,Y
1515876755.9,286047000.8,P
1515876775.7,286047000.8,N
1515876795.5,286047000.8,N
1515876815.4,286047000.7,N
1515876835.2,286047001.0,N
1515876855.0,286047001.0,N
1515876855.9,286047001.0,N
1515876875.8,286047001.0,N
1515876895.6,286047000.9,N
1515876915.4,286047000.6,N
1515876935.3,286047000.6,N
1515876955.1,286047000.5,N
1515876956.0,286047000.5,N
1515876975.8,286047000.5,N
1515876995.6,286047000.5,N
1515877015.5,286047000.6,N
1515877035.3,286047000.5,N
1515877055.1,286047000.4,N
1515877075.9,286047000.3,N
1515877095.7,286047000.0,N
1515877115.5,286047000.0,N
1515877135.4,286047000.0,N
1515877155.2,286046999.9,N
1515877175.0,286047000.2,N
1515877175.9,286047000.2,N
1515877195.8,286047000.1,N
